Hourly Data Report for October 31, 2003

SHERBROOKE A
QUEBEC

45°26'00.000" N
71°41'00.000" W
241.40 m
7028124
71610
YSC

Download Data

Hourly Data (October 2003)
Hourly Data Report for October 31, 2003
TIME
LST
Temp Definition
°C
Dew Point Definition
°C
Rel Hum Definition
%
Precip. Amount Definition
mm

Wind Dir Definition
10's deg

Wind Spd Definition
km/h
Visibility Definition
km
Stn Press Definition
kPa
Hmdx Definition


Wind Chill Definition


Weather Definition


00:00 2.8 1.3 90     0 15.0 99.56      
01:00 1.1 -0.3 90   23 4 15.0 99.59      
02:00 0.3 -0.8 92     0 15.0 99.65      
03:00 0.7 -0.3 93   7 6 15.0 99.62      
04:00 1.9 0.8 92   9 6 15.0 99.63      
05:00 2.4 0.6 88   9 9 15.0 99.59      
06:00 2.5 0.4 86   8 7 15.0 99.51      
07:00 3.1 0.8 85   10 11 15.0 99.44      
08:00 5.1 2.0 80   9 9 24.1 99.35     Mainly Clear
09:00 8.6 3.4 70   7 7 24.1 99.34     Mainly Clear
10:00 11.8 4.7 62   8 4 24.1 99.25     Mainly Clear
11:00 15.0 5.9 54   22 6 24.1 99.18     Mainly Clear
12:00 17.4 5.6 46   21 13 24.1 99.05     Mainly Clear
13:00 17.7 5.7 45   20 17 24.1 98.95     Mainly Clear
14:00 19.1 6.9 45   23 13 24.1 98.93     Mainly Clear
15:00 18.3 6.4 46   20 15 24.1 98.94     Mostly Cloudy
16:00 17.0 6.6 50   19 9 24.1 98.94     Mostly Cloudy
17:00 16.0 6.7 54   19 13 24.1 98.94     Mostly Cloudy
18:00 15.7 7.0 56   20 7 15.0 98.94      
19:00 15.3 7.2 58   21 9 15.0 98.93      
20:00 15.4 7.2 58   20 11 15.0 98.92      
21:00 15.4 7.6 60   19 11 15.0 98.89      
22:00 15.7 7.9 60   18 9 15.0 98.86      
23:00 13.9 9.7 76   28 4 4.8 98.88     Rain

Notes on Data Quality.

Legend

  • E = Estimated
  • M = Missing
  • NA = Not Available*
  • [empty] = Indicates an unobserved value
Date modified: